Wind_Speed
20 23 24 24 25 25 25 28 33 36 35 34 30 25 20 15 16 21 26 28 29 29 30 29 26 25 23 22 24 23 23 21 20 18 21 21 24 23 20 19 20 21 24 25 26
19 21 22 24 23 23 24 26 33 36 39 37 34 29 23 19 19 23 26 27 28 29 29 26 24 25 23 21 21 18 16 17 17 19 18 19 19 20 19 18 21 24 26 27 29
19 22 21 23 22 18 20 23 28 38 41 40 37 33 28 24 25 25 27 28 29 29 28 27 26 25 23 24 21 18 16 18 18 16 18 17 17 19 20 20 23 27 28 31 35
18 20 22 22 20 18 17 19 24 36 41 42 40 37 32 28 26 27 27 28 30 28 28 28 27 28 27 25 21 19 16 18 17 15 17 17 18 21 21 23 26 31 33 36 40
21 19 19 21 21 18 16 17 23 27 41 45 43 40 36 32 28 27 28 27 27 29 29 29 28 27 27 22 20 20 18 18 17 17 18 18 20 23 25 25 27 32 36 38 41
23 23 21 21 21 19 16 17 20 23 37 45 45 43 40 35 32 29 29 29 26 29 31 29 27 27 26 23 21 20 20 21 20 20 20 20 22 25 28 30 32 35 37 39 42
23 24 25 23 21 21 18 16 19 21 30 45 48 47 45 42 37 34 30 28 31 31 29 29 27 26 24 23 23 22 23 22 22 23 24 25 25 27 30 33 34 36 38 39 34
23 23 24 26 23 22 21 18 17 21 23 40 51 50 48 45 41 38 36 34 32 31 32 31 29 27 25 25 24 23 25 24 25 25 25 28 28 30 32 35 36 37 37 32 26
25 25 24 25 26 25 23 22 20 22 24 31 49 53 51 49 46 42 40 39 36 34 33 32 30 29 28 28 28 29 28 27 28 28 29 32 33 32 32 35 37 37 32 24 23
29 25 27 25 25 27 27 26 23 22 26 28 41 54 54 52 49 47 45 42 40 39 37 36 35 33 31 32 32 32 32 30 32 31 31 33 35 34 32 32 33 28 22 22 20
32 31 28 29 29 28 29 26 24 23 22 25 32 48 57 55 53 50 48 47 45 43 42 41 40 39 38 38 37 36 34 33 35 35 36 36 34 33 32 31 24 18 17 16 16
34 32 31 31 32 29 28 26 24 26 24 26 26 37 52 60 57 55 53 51 49 48 46 46 46 45 45 41 40 39 38 36 36 38 39 37 31 32 32 26 17 12 11 10 11
38 35 32 32 32 30 26 29 28 27 25 24 27 32 42 53 60 60 57 55 53 52 51 51 50 48 46 46 44 42 40 38 40 40 40 36 35 34 30 20 14 11 6 8 10
40 38 34 32 30 31 31 30 30 29 27 24 24 30 37 45 52 58 60 59 57 55 55 53 52 51 50 48 48 45 43 43 43 41 39 36 34 32 24 18 12 8 5 9 8
42 40 36 33 31 33 31 29 30 29 27 24 25 26 34 41 46 52 56 60 60 58 55 56 54 52 50 50 50 45 45 46 44 42 38 36 32 23 15 17 14 8 9 11 11
43 42 40 36 33 32 32 32 32 29 24 22 23 26 31 37 42 47 50 54 55 57 56 56 54 53 51 51 50 46 46 45 44 42 38 33 24 18 18 18 8 10 13 13 14
44 43 44 43 38 38 37 35 31 26 25 25 23 25 26 30 36 41 44 45 48 48 46 50 52 52 53 54 51 47 48 43 41 38 32 29 21 19 17 12 9 14 16 17 19
44 45 45 45 44 43 41 37 31 25 26 28 26 26 24 26 27 32 36 36 37 39 40 39 40 43 45 49 46 37 37 34 33 30 25 20 20 18 17 11 15 16 18 22 24
35 42 45 46 47 47 45 38 31 30 28 27 24 25 22 21 23 26 27 30 32 33 36 38 40 39 39 39 36 34 31 32 25 23 22 22 20 21 21 17 19 21 24 23 22
30 35 40 45 47 47 44 37 33 32 23 21 17 18 18 16 18 21 24 26 30 34 34 35 37 38 36 37 34 26 27 29 27 27 27 26 24 22 20 23 24 24 26 23 18
27 30 35 41 43 43 38 32 31 27 22 22 16 12 15 16 18 20 25 27 27 27 29 31 33 34 32 32 34 35 35 35 32 31 30 28 25 25 28 28 29 27 28 25 21
26 29 32 36 38 36 29 29 29 26 27 26 13 15 18 15 19 22 25 24 24 25 28 30 30 32 31 31 30 32 31 34 35 33 30 29 27 30 31 32 32 33 32 34 33
26 30 34 37 37 25 26 26 27 29 26 19 19 19 16 17 20 16 19 21 25 29 29 28 28 30 30 31 31 33 36 38 36 34 34 33 33 34 36 39 38 40 40 40 41
26 28 30 29 21 21 25 25 31 32 23 24 24 21 19 22 21 15 20 23 25 26 24 23 26 29 30 30 34 37 38 37 36 36 35 36 38 40 40 44 47 47 46 45 47
25 27 26 22 16 20 25 27 36 39 29 25 22 27 28 23 25 25 23 27 24 23 20 22 25 28 30 30 33 39 40 40 39 39 40 42 44 45 47 49 50 51 49 48 50
21 21 21 21 21 22 25 29 32 33 31 30 29 33 38 36 32 29 24 24 24 23 24 26 27 30 31 31 35 38 40 41 42 45 47 49 50 51 52 52 50 53 55 57 61
20 21 22 21 23 27 30 31 28 25 27 29 30 33 32 31 31 29 31 30 29 28 28 27 29 32 34 34 37 37 39 42 44 47 48 49 50 52 54 56 59 60 63 64 59
Wind_Direction
236 233 233 235 237 244 245 240 229 222 220 220 219 223 219 214 207 195 192 193 194 200 202 206 210 212 212 214 219 218 220 225 241 255 267 270 278 283 286 286 292 292 295 300 303
241 239 238 236 239 252 249 241 226 219 217 216 216 218 214 210 207 198 196 198 199 202 204 208 207 211 213 220 229 233 244 249 256 261 270 277 279 285 286 286 292 298 301 306 309
246 241 240 237 241 256 254 236 227 215 214 214 214 215 213 210 209 208 204 203 205 206 205 208 207 209 215 218 220 236 253 259 255 265 270 272 276 280 283 289 294 298 303 306 310
253 250 242 240 240 253 255 235 226 217 213 212 212 212 214 211 212 212 209 211 208 206 208 210 209 207 216 225 228 234 238 260 263 268 272 276 283 286 289 290 297 304 305 306 309
253 252 243 238 240 247 252 237 225 220 212 211 211 211 213 212 213 215 211 213 212 211 213 210 212 214 222 228 232 239 243 251 257 261 270 277 285 293 296 296 301 303 305 306 310
252 249 247 241 238 242 246 241 229 223 214 212 211 210 211 214 213 215 213 212 211 216 214 214 217 220 226 229 233 238 242 246 251 262 270 278 285 293 300 302 304 308 308 308 307
258 248 245 245 240 237 239 243 234 228 218 213 211 212 211 212 212 213 211 211 213 213 215 219 224 230 233 233 235 241 248 254 258 266 274 282 289 297 304 305 307 309 312 314 314
261 254 247 243 242 238 238 242 239 230 224 214 211 212 214 214 215 214 213 213 218 217 215 220 223 223 226 234 240 243 248 255 264 270 278 286 291 298 304 305 308 313 313 311 309
259 256 251 244 243 240 240 237 237 231 225 218 213 212 214 215 216 218 218 219 219 221 221 221 222 225 230 238 242 246 251 257 267 274 282 289 295 299 302 307 312 312 311 310 311
252 254 251 248 245 242 238 236 237 235 229 222 216 214 215 217 219 219 221 222 221 222 224 224 226 231 237 241 245 251 254 262 274 280 287 294 297 298 302 309 311 308 309 311 317
249 249 252 249 245 243 240 239 238 239 236 238 227 218 216 218 220 220 223 226 226 224 226 228 231 234 238 242 247 253 260 267 275 284 292 294 296 301 305 308 304 300 302 308 319
244 247 250 249 242 244 243 240 239 239 234 226 231 227 222 219 221 225 225 227 229 229 230 232 234 238 241 245 250 256 262 271 278 284 289 292 294 300 301 301 292 285 294 313 323
241 244 247 247 241 244 245 241 240 238 236 233 233 225 225 224 224 224 228 231 231 232 233 236 239 242 245 247 253 260 266 273 278 281 283 288 295 297 294 285 277 266 284 312 325
239 242 242 242 237 235 237 238 240 239 237 235 237 233 225 226 227 228 228 230 233 232 234 236 240 243 246 251 255 261 268 271 273 278 282 289 294 291 283 276 265 252 280 285 296
238 238 236 234 230 231 234 236 240 239 237 239 242 242 231 224 226 229 229 230 232 234 236 238 242 246 249 252 256 260 264 267 271 275 281 284 282 269 270 270 263 275 282 284 312
236 235 232 227 225 226 231 234 240 240 241 250 256 252 239 229 225 227 229 232 233 235 237 240 243 245 248 252 255 258 261 266 271 275 275 272 261 243 242 239 254 287 290 294 306
234 232 228 225 224 227 231 234 242 242 244 250 249 243 243 235 229 225 227 230 232 233 235 241 243 244 246 250 254 257 262 264 264 263 258 257 247 232 232 245 263 270 280 286 285
229 227 225 222 225 229 232 237 239 244 245 260 253 239 232 232 229 224 224 227 228 229 229 233 237 242 247 250 251 246 251 252 255 251 242 240 241 233 223 246 258 270 274 276 286
220 219 219 221 223 227 230 232 232 237 239 255 249 243 229 223 219 218 217 219 223 226 228 229 233 235 239 242 242 243 244 245 234 229 230 234 231 229 225 246 254 261 263 272 290
214 212 211 215 219 223 226 225 225 235 242 243 216 218 210 209 215 216 222 220 221 221 224 231 232 234 236 240 234 222 220 229 219 220 223 226 233 238 242 242 247 264 271 273 286
201 199 202 208 214 219 219 215 226 235 227 208 204 196 196 204 216 214 222 219 220 224 226 227 230 233 235 237 239 228 213 218 223 222 228 232 239 249 251 252 254 265 272 274 273
193 195 200 204 209 213 205 208 222 230 219 202 179 200 196 192 203 211 218 221 221 217 227 228 232 232 228 228 225 231 220 223 231 232 233 239 247 258 263 265 267 270 277 280 277
189 191 194 200 206 194 194 211 218 219 221 199 197 221 203 212 202 209 220 222 225 220 222 228 231 237 231 228 224 228 230 231 235 241 244 245 247 259 267 272 275 279 278 281 285
186 190 194 201 196 181 200 211 205 206 198 176 208 221 196 192 182 191 224 227 230 227 224 227 231 233 234 230 230 233 238 242 247 253 256 260 259 260 268 279 281 281 283 284 284
186 188 190 189 178 183 202 208 205 206 199 193 204 212 202 204 202 208 216 225 230 230 224 231 236 239 241 238 239 241 242 247 252 258 263 268 273 275 276 278 281 284 284 284 282
187 190 194 193 188 191 203 205 207 210 210 217 219 214 213 215 224 222 226 233 235 233 231 231 237 243 246 245 245 248 252 255 258 262 266 269 272 274 275 277 278 278 279 281 283
194 198 198 199 195 194 187 195 203 196 204 212 216 215 218 221 223 225 225 232 235 230 232 239 238 241 247 249 253 256 259 261 263 265 267 269 272 274 276 277 279 281 283 285 285
Height
10923 10925 10926 10928 10929 10931 10932 10933 10935 10939 10943 10946 10949 10952 10955 10956 10957 10958 10961 10965 10969 10974 10978 10981 10984 10988 10990 10993 10993 10995 10997 10999 11000 11001 11001 11002 11002 11002 11003 11000 10997 10994 10994 10994 10994
10919 10921 10922 10923 10925 10925 10926 10927 10928 10933 10937 10942 10945 10949 10952 10955 10956 10958 10961 10965 10969 10972 10977 10981 10984 10986 10988 10989 10991 10994 10996 10997 10997 10997 10999 11000 11000 10999 11000 10999 10995 10991 10990 10990 10989
10914 10916 10917 10919 10920 10920 10920 10921 10923 10927 10931 10937 10941 10945 10949 10952 10954 10956 10960 10964 10967 10971 10975 10978 10982 10985 10985 10985 10988 10991 10992 10994 10995 10994 10997 10999 10999 10998 10998 10996 10993 10990 10988 10984 10982
10909 10910 10912 10914 10915 10916 10916 10917 10918 10921 10926 10932 10937 10941 10946 10949 10952 10954 10959 10961 10965 10970 10972 10975 10977 10979 10981 10983 10986 10988 10990 10991 10993 10994 10995 10997 10996 10994 10995 10995 10991 10986 10985 10982 10978
10905 10906 10907 10909 10911 10912 10912 10913 10914 10916 10921 10927 10933 10938 10943 10946 10950 10952 10956 10959 10963 10966 10968 10971 10974 10976 10978 10982 10985 10987 10988 10990 10990 10991 10992 10994 10994 10991 10991 10991 10989 10984 10980 10977 10973
10899 10901 10903 10904 10906 10907 10908 10909 10910 10912 10916 10922 10928 10933 10938 10943 10947 10949 10952 10956 10961 10962 10965 10968 10972 10974 10977 10980 10982 10985 10985 10985 10987 10988 10989 10991 10991 10990 10986 10985 10984 10979 10975 10971 10968
10894 10896 10897 10899 10901 10903 10904 10905 10906 10908 10911 10916 10922 10928 10933 10937 10941 10945 10950 10954 10955 10958 10964 10966 10970 10973 10976 10978 10979 10981 10982 10984 10985 10986 10986 10987 10987 10986 10984 10981 10979 10976 10971 10964 10958
10889 10890 10891 10893 10896 10898 10899 10901 10902 10904 10906 10910 10915 10921 10927 10933 10937 10941 10946 10949 10952 10957 10959 10963 10966 10970 10972 10974 10976 10978 10979 10982 10982 10983 10984 10982 10984 10983 10980 10976 10974 10971 10967 10962 10956
10883 10884 10886 10888 10890 10892 10894 10896 10897 10899 10901 10904 10909 10915 10921 10926 10932 10937 10942 10945 10949 10952 10956 10960 10964 10967 10969 10970 10972 10973 10975 10978 10978 10980 10981 10979 10978 10979 10977 10972 10968 10964 10960 10957 10954
10877 10878 10880 10882 10884 10885 10888 10890 10892 10894 10896 10899 10903 10909 10915 10921 10926 10931 10936 10940 10945 10948 10952 10957 10960 10963 10965 10965 10968 10969 10972 10975 10974 10976 10976 10975 10972 10973 10973 10972 10966 10960 10957 10953 10951
10870 10871 10873 10875 10877 10879 10881 10885 10889 10891 10893 10897 10898 10901 10908 10913 10919 10924 10929 10934 10939 10944 10947 10951 10954 10957 10958 10960 10963 10966 10967 10970 10970 10970 10969 10970 10968 10968 10969 10968 10964 10960 10958 10954 10949
10862 10864 10866 10868 10870 10873 10877 10881 10883 10885 10887 10889 10891 10896 10901 10905 10911 10917 10922 10926 10931 10937 10941 10944 10948 10950 10952 10956 10959 10960 10962 10965 10965 10964 10963 10963 10966 10965 10961 10961 10961 10960 10956 10954 10951
10852 10855 10858 10860 10864 10869 10872 10873 10875 10877 10880 10884 10885 10887 10892 10899 10903 10908 10914 10918 10923 10929 10934 10937 10941 10944 10947 10950 10953 10955 10958 10961 10960 10958 10957 10959 10960 10960 10958 10957 10957 10958 10956 10952 10949
10842 10846 10850 10854 10859 10862 10862 10866 10868 10870 10874 10877 10879 10881 10884 10890 10895 10899 10905 10909 10914 10921 10923 10928 10932 10936 10940 10944 10946 10950 10954 10954 10953 10953 10954 10957 10956 10953 10952 10952 10954 10952 10950 10949 10947
10831 10836 10841 10847 10851 10853 10856 10859 10861 10863 10868 10871 10873 10874 10876 10881 10886 10890 10895 10900 10904 10911 10917 10920 10926 10930 10934 10935 10939 10946 10945 10945 10946 10948 10951 10951 10952 10949 10951 10950 10946 10948 10949 10947 10943
10820 10826 10833 10839 10843 10847 10849 10851 10854 10859 10864 10867 10867 10867 10869 10874 10878 10882 10887 10890 10898 10904 10908 10913 10919 10921 10924 10926 10931 10938 10935 10939 10939 10943 10945 10945 10947 10947 10946 10944 10943 10943 10941 10939 10939
10809 10816 10823 10830 10836 10839 10841 10844 10849 10856 10858 10859 10860 10859 10863 10866 10871 10875 10878 10883 10890 10896 10900 10903 10908 10910 10914 10918 10923 10928 10927 10932 10932 10935 10937 10938 10941 10943 10942 10941 10940 10939 10937 10935 10934
10797 10805 10813 10822 10827 10830 10833 10839 10846 10851 10852 10852 10854 10854 10857 10860 10865 10869 10873 10877 10882 10887 10890 10894 10897 10901 10905 10909 10915 10919 10920 10924 10926 10929 10931 10933 10934 10937 10938 10937 10936 10935 10933 10930 10927
10788 10795 10804 10812 10818 10821 10826 10834 10842 10842 10846 10847 10849 10850 10853 10857 10861 10864 10869 10873 10876 10880 10883 10886 10889 10893 10897 10900 10907 10912 10914 10916 10923 10926 10928 10928 10929 10931 10934 10934 10931 10928 10926 10925 10921
10781 10788 10795 10802 10808 10813 10819 10830 10835 10836 10843 10844 10846 10847 10851 10855 10860 10864 10866 10868 10869 10871 10876 10880 10884 10886 10891 10895 10901 10905 10909 10910 10915 10918 10921 10922 10922 10924 10926 10926 10924 10920 10920 10920 10918
10778 10783 10789 10795 10801 10807 10817 10827 10829 10834 10837 10841 10843 10846 10850 10853 10858 10860 10860 10862 10865 10869 10872 10874 10877 10880 10885 10890 10894 10896 10899 10902 10906 10910 10913 10917 10918 10916 10915 10915 10916 10915 10913 10913 10912
10774 10780 10786 10792 10797 10804 10817 10824 10825 10829 10831 10838 10841 10842 10844 10849 10855 10856 10856 10859 10863 10865 10866 10868 10871 10874 10878 10883 10889 10894 10897 10898 10899 10905 10909 10911 10912 10907 10904 10904 10905 10904 10905 10902 10903
10772 10777 10781 10788 10793 10807 10816 10820 10821 10824 10829 10835 10837 10840 10842 10846 10851 10854 10855 10857 10859 10859 10860 10863 10867 10869 10874 10878 10883 10886 10887 10889 10893 10897 10900 10903 10904 10901 10896 10892 10894 10894 10894 10894 10892
10771 10777 10783 10789 10799 10808 10813 10817 10819 10821 10827 10833 10836 10839 10844 10846 10848 10850 10852 10853 10854 10856 10859 10862 10863 10865 10868 10873 10876 10878 10881 10884 10887 10888 10892 10893 10892 10891 10889 10883 10880 10881 10884 10884 10881
10772 10777 10783 10791 10800 10807 10809 10813 10816 10819 10827 10832 10835 10837 10840 10842 10843 10846 10847 10848 10851 10854 10857 10859 10860 10862 10864 10868 10871 10871 10874 10877 10880 10880 10880 10879 10879 10878 10877 10875 10871 10867 10869 10870 10868
10775 10779 10785 10791 10797 10802 10805 10809 10813 10820 10826 10828 10831 10832 10833 10836 10839 10843 10845 10846 10849 10851 10853 10854 10856 10857 10858 10862 10862 10864 10867 10868 10870 10869 10868 10868 10868 10866 10864 10862 10861 10856 10852 10852 10852
10774 10778 10783 10788 10793 10795 10801 10805 10810 10816 10818 10821 10823 10825 10829 10834 10837 10839 10841 10841 10843 10845 10848 10850 10850 10850 10851 10853 10853 10857 10858 10857 10858 10855 10856 10855 10854 10851 10850 10849 10846 10843 10838 10834 10831